Weather History for KPYM - August, 2013

Change the Weather History Date:

Sunday, August 4, 2013

  Actual Average Record
Temperature  
Mean Temperature 68 °F -  
Max Temperature 79 °F 82 °F 96 °F (1975)
Min Temperature 57 °F 64 °F 46 °F (1985)
Cooling Degree Days 2    
Growing Degree Days 18 (Base 50)    
Moisture  
Dew Point 57 °F    
Average Humidity 68    
Maximum Humidity 87    
Minimum Humidity 50    
Precipitation  
Precipitation 0.00 in - - ()
Sea Level Pressure  
Sea Level Pressure 29.82 in    
Wind  
Wind Speed 4 mph (WNW)    
Max Wind Speed 12 mph    
Max Gust Speed 21 mph    
Visibility 10 miles    
Events Rain , Thunderstorm    
Averages and records for this station are not official NWS values.
T = Trace of Precipitation, MM = Missing Value Source: NWS Daily Summary

Daily Weather History Graph

Daily Weather History Graph

Search for Another Location

Airport or City:

Trip Planner

Search our weather history database for the weather conditions in past years. The results will help you decide how hot, cold, wet, or windy it might be!

Date:

Astronomy

Aug. 04, 2013 Rise Set
Actual Time 5:39 AM EDT 7:57 PM EDT
Civil Twilight 5:08 AM EDT 8:28 PM EDT
Nautical Twilight 4:30 AM EDT 9:06 PM EDT
Astronomical Twilight 3:47 AM EDT 9:49 PM EDT
Moon 3:37 AM EDT (8/4) 6:18 PM EDT (8/4)
Length of Visible Light 15h 19m
Length of Day
14h 17m
Waning Crescent, 5% of the Moon is Illuminated
Aug 4
Waning Crescent
Aug 6
New
Aug 14
First Quarter
Aug 20
Full
Aug 28
Last Quarter

Hourly Weather History & Observations

Time (EDT) Temp. Dew Point Humidity Pressure Visibility Wind Dir Wind Speed Gust Speed Precip Events Conditions
12:52 AM 66.0 °F 60.1 °F 81% 29.84 in 10.0 mi West 5.8 mph - N/A   Clear
1:52 AM 64.9 °F 59.0 °F 81% 29.82 in 10.0 mi West 4.6 mph - N/A   Clear
2:52 AM 64.0 °F 57.0 °F 78% 29.82 in 10.0 mi WNW 4.6 mph - N/A   Clear
3:52 AM 63.0 °F 55.0 °F 75% 29.82 in 10.0 mi WNW 5.8 mph - N/A   Clear
4:52 AM 61.0 °F 54.0 °F 78% 29.83 in 10.0 mi Calm Calm - N/A   Clear
5:52 AM 57.9 °F 54.0 °F 87% 29.83 in 10.0 mi Calm Calm - N/A   Clear
6:52 AM 63.0 °F 55.0 °F 75% 29.83 in 10.0 mi West 4.6 mph - N/A   Clear
7:52 AM 66.9 °F 55.0 °F 66% 29.84 in 10.0 mi West 5.8 mph - N/A   Clear
8:52 AM 70.0 °F 55.9 °F 61% 29.84 in 10.0 mi NW 6.9 mph - N/A   Clear
9:52 AM 73.9 °F 57.9 °F 57% 29.83 in 10.0 mi Calm Calm - N/A   Clear
10:52 AM 75.9 °F 57.9 °F 54% 29.82 in 10.0 mi Calm Calm - N/A   Clear
11:52 AM 77.0 °F 57.0 °F 50% 29.82 in 10.0 mi Variable 6.9 mph - N/A   Partly Cloudy
12:52 PM 75.9 °F 57.9 °F 54% 29.81 in 10.0 mi ENE 9.2 mph - N/A   Mostly Cloudy
1:52 PM 75.0 °F 57.0 °F 53% 29.80 in 10.0 mi ESE 4.6 mph - N/A   Scattered Clouds
2:52 PM 75.0 °F 59.0 °F 57% 29.79 in 10.0 mi ESE 6.9 mph - N/A   Overcast
3:52 PM 78.1 °F 59.0 °F 52% 29.78 in 10.0 mi Variable 3.5 mph - N/A   Clear
4:52 PM 77.0 °F 59.0 °F 54% 29.78 in 10.0 mi SSE 4.6 mph - N/A   Mostly Cloudy
5:52 PM 75.0 °F 59.0 °F 57% 29.78 in 10.0 mi East 5.8 mph - N/A   Overcast
6:12 PM 73.4 °F 59.0 °F 61% 29.79 in 10.0 mi NNE 3.5 mph - N/A Thunderstorm Mostly Cloudy
6:33 PM 69.8 °F 57.2 °F 64% 29.80 in 10.0 mi West 11.5 mph 20.7 mph 0.00 in Rain Light Rain
6:52 PM 71.1 °F 57.0 °F 61% 29.81 in 10.0 mi West 8.1 mph - 0.00 in   Mostly Cloudy
7:52 PM 68.0 °F 57.0 °F 68% 29.83 in 10.0 mi NNW 5.8 mph - N/A   Clear
8:52 PM 64.0 °F 55.9 °F 75% 29.86 in 10.0 mi Calm Calm - N/A   Partly Cloudy
9:52 PM 60.1 °F 55.9 °F 86% 29.87 in 10.0 mi Calm Calm - N/A   Clear
10:52 PM 60.1 °F 55.9 °F 86% 29.87 in 10.0 mi Calm Calm - N/A   Clear
11:52 PM 60.1 °F 55.9 °F 86% 29.89 in 10.0 mi WNW 3.5 mph - N/A   Clear